Regional Weather Roundup
Issued by NWS

Home | Current Version | Previous Version | Text Only | Print | Product List | Glossary On
Versions: 1 2 3 4 5 6 7 8 9 10 11 12 13 14 15 16 17 18 19 20 21 22 23 24 25 26 27 28 29 30 31 32 33 34 35 36 37 38 39 40 41 42 43 44 45 46 47 48 49 50
000
ASUS44 KOUN 271510
RWROK

WEATHER ROUNDUP FOR OKLAHOMA
NATIONAL WEATHER SERVICE NORMAN OK
1000 AM CDT TUE SEP 27 2016

NOTE: "FAIR" INDICATES FEW OR NO CLOUDS BELOW 12,000 FEET WITH NO
      SIGNIFICANT WEATHER AND/OR OBSTRUCTIONS TO VISIBILITY.

OKZ001>007-009>012-014-015-017-271600-
NORTHWEST OKLAHOMA AND THE PANHANDLE

CITY           SKY/WX    TMP DP  RH WIND       PRES   REMARKS
GAGE           SUNNY     65  44  46 W10       30.16F
GUYMON         SUNNY     65  38  36 W7        30.18S
ENID/WOODRING  SUNNY     68  52  56 W5        30.13S
$$

OKZ016-021>023-033>039-044-045-271600-
SOUTHWEST OKLAHOMA

CITY           SKY/WX    TMP DP  RH WIND       PRES   REMARKS
LAWTON/REGL    MOSUNNY   65  52  62 CALM      30.17F
LAWTON/FT SILL CLOUDY    63  51  65 N2        30.16S
FREDERICK      MOSUNNY   65  49  56 NW9       30.16R
CLINTON        SUNNY     68  45  43 W9        30.19F
HOBART         HAZE      64  53  67 W6        30.18F VSB 1
ALTUS AFB      SUNNY     64  46  51 NW6       30.18S
$$

OKZ018>020-024>031-271600-
CENTRAL OKLAHOMA

CITY           SKY/WX    TMP DP  RH WIND       PRES   REMARKS
OKLAHOMA CITY  MOSUNNY   66  49  54 W5        30.16S
OKC/WILEY POST SUNNY     65  50  58 SW5       30.16S
OKC/TINKER AFB SUNNY     67  46  47 SW6       30.15S
STILLWATER     SUNNY     63  54  72 VRB3      30.15S
GUTHRIE        SUNNY     63  53  70 VRB3      30.16S
$$

OKZ008-013-054>072-271600-
NORTHEAST OKLAHOMA

CITY           SKY/WX    TMP DP  RH WIND       PRES   REMARKS
TULSA          MOSUNNY   68  44  42 SW5       30.13S
TULSA/JONES    SUNNY     65  49  56 SW5       30.14S
PONCA CITY     SUNNY     64  52  64 SW3       30.13S
BARTLESVILLE   SUNNY     66  48  52 W7        30.13F
MUSKOGEE       SUNNY     65  50  58 CALM      30.16S
$$

OKZ032-040>043-046>053-073>077-271600-
SOUTH CENTRAL/SOUTHEAST OKLAHOMA

CITY           SKY/WX    TMP DP  RH WIND       PRES   REMARKS
ARDMORE/DWNTWN CLOUDY    63  46  55 NE3       30.15F
MCALESTER      MOSUNNY   68  49  50 N5        30.15S
$$





USA.gov is the U.S. government's official web portal to all federal, state and local government web resources and services.